ONEWEB-0181, 48230

Orbit data source: Space-Track

ONEWEB-0181, 48230 is a payload satellite owned by One Web (NAA) (UK) in LEO that was launched on Sun, 25 Apr 2021 UTC via a SOYUZ-2-1B launch vehicle from the Vostochny Cosmodrome (VOSTO). Payload-class satellites include a variety of spacecraft equipped with specific instruments for various scientific and technological missions. These include communications satellites like Starlink; space stations such as the ISS; scientific satellites like the Hubble; Earth observation satellites from companies like Planet Labs, Umbra, and HawkEye 360; GPS; miniature CubeSats for education and research; and military/defense satellites.

Loading next visibility...
Identifier
48230, 2021-031W
Orbit
LEO
Country
Flag of UKUK
Related business
Manufacturer
One Web
Mission
Operational Commercial Communications
Bus & Motor
ARROW, Unknown motor
Mass
148 kg wet, ~140 kg dry
Launch date (UTC)
2021-04-25 (5 years ago)
Launch vehicle
SOYUZ-2-1B
Launch site
Vostochny Cosmodrome (VOSTO)
Object type
Payload
Rocket body
Debris
Shape & HBR
Trap Box + 2 Pan, 6.7 m
Radar Cross Section
3.464 m², Large (>1 m²)

Expand to show TLE details & history
Last TLE update: 1 day ago

TLE from 1 day ago
0 ONEWEB-0181
1 48230U 21031W   25305.50276215 -.00000211  00000-0 -60373-3 0  9995
2 48230  87.8998 335.1076 0002041  92.4098 267.7266 13.14504355218325
Epoch: 2025-11-01T12:03Z
TLE epoch observation values (Epoch: 2025-11-01T12:03:58.649Z)
Latitude
0.00002°
Longitude
113.08131°
Altitude
1,208.74 km
Speed
7.25 km/s
True Right ascension
22h 20m 25s
True Declination
0° 00' 00"
Sunlit
Object was in daylight at epoch
Visualization orbit readout
Latitude
Unknown
Longitude
Unknown
Altitude
Unknown
Speed
Unknown
Apparent Right ascension
Unknown
Apparent Declination
Unknown
Sunlit
N/A
Visualization observer readout
Local Sidereal Time
09:09:36
Azimuth
Unknown
Elevation
Unknown
Doppler factor
Unknown
Orbital elements
Apogee altitude
1,204.445 km
Perigee altitude
1,201.351 km
Semi-major axis
7,581.035 km
Eccentricity
0.0002
Inclination
87.8998°
RAAN
335.1076°
Arg. of periapsis
92.4098°
True anomaly
267.70323°
Mean anomaly
267.7266°
Eccentric anomaly
267.71492°
Mean motion
3.28814 °/min
Orbital period
109.48 mins
BSTAR
-0.00060373
Loading maneuver chart data...
Computing Atmospheric mass density...
Loading historical data...
Loading historical data...
Loading historical data...
Loading historical data...
Loading historical data...
Loading historical data...
Loading historical data...

Documentation

Showing up to 5 results
|